User: anonymous   Login
Location: Caltech
(34.1382°N, 118.1253°W)
Time: 18:24:47
(UTC-07:00)
Language:

Cosmos 1697 Rocket - Orbit

View from above orbital plane
View from above orbital plane
View from above satellite
View from above satellite

Ground track
Ground track

The orbit data is extracted from the following two-line orbital elements,

1 16182U 85097B   16144.93797192 +.00000191 +00000-0 +12076-3 0  9990
2 16182 071.0021 107.0148 0009519 298.8503 119.8966 14.16198245580836
Epoch (UTC): 23 May 2016 22:30:40
Eccentricity: 0.0009519
inclination: 71.0021°
perigee height: 831 km
apogee height: 845 km
right ascension of ascending node: 107.0148°
argument of perigee: 298.8503°
revolutions per day: 14.16198245
mean anomaly at epoch: 119.8966°
orbit number at epoch: 58083

The dashed part of the orbit path shows where the satellite is in the earth's shadow,  

DLR